Weather History for Fallon NAS, NV

Change the Weather History Date:

Friday, May 17, 2013

  Actual Average Record
Temperature  
Mean Temperature 58 °F -  
Max Temperature 73 °F 74 °F 96 °F (2008)
Min Temperature 43 °F 40 °F 29 °F (1971)
Degree Days  
Heating Degree Days 7    
Growing Degree Days 8 (Base 50)    
Moisture  
Dew Point 33 °F    
Average Humidity 44    
Maximum Humidity 80    
Minimum Humidity 15    
Precipitation  
Precipitation 0.00 in - - ()
Sea Level Pressure  
Sea Level Pressure 29.86 in    
Wind  
Wind Speed 5 mph (WNW)    
Max Wind Speed 22 mph    
Max Gust Speed 30 mph    
Visibility 10 miles    
Events      
Averages and records for this station are not official NWS values.
T = Trace of Precipitation, MM = Missing Value Source: NWS Daily Summary

Daily Weather History Graph

Daily Weather History Graph

Search for Another Location

Airport:

Trip Planner

Search our weather history database for the weather conditions in past years. The results will help you decide how hot, cold, wet, or windy it might be!

Date:

Astronomy

May. 17, 2013 Rise Set
Actual Time 5:38 AM PDT 8:03 PM PDT
Civil Twilight 5:08 AM PDT 8:34 PM PDT
Nautical Twilight 4:30 AM PDT 9:12 PM PDT
Astronomical Twilight 3:49 AM PDT 9:54 PM PDT
Moon 12:15 PM PDT (5/17) 12:59 AM PDT (5/17)
Length of Visible Light 15h 26m
Length of Day
14h 24m
Waxing Crescent, 46% of the Moon is Illuminated
May 17
Waxing Crescent
May 17
First Quarter
May 24
Full
May 31
Last Quarter
Jun 8
New

Hourly Weather History & Observations

Time (PDT) Temp. Dew Point Humidity Pressure Visibility Wind Dir Wind Speed Gust Speed Precip Events Conditions
12:56 AM 53.1 °F 37.9 °F 57% 29.85 in 10.0 mi North 4.6 mph - N/A   Overcast
1:56 AM 52.0 °F 39.0 °F 61% 29.85 in 10.0 mi NNW 3.5 mph - N/A   Overcast
2:56 AM 51.1 °F 41.0 °F 68% 29.85 in 10.0 mi NNW 4.6 mph - N/A   Overcast
3:56 AM 48.0 °F 39.9 °F 74% 29.85 in 10.0 mi Calm Calm - N/A   Mostly Cloudy
4:56 AM 45.0 °F 39.0 °F 80% 29.85 in 10.0 mi Calm Calm - N/A   Clear
5:56 AM 43.0 °F 37.0 °F 80% 29.86 in 10.0 mi Calm Calm - N/A   Clear
6:15 AM 44.6 °F 37.4 °F 76% 29.94 in 10.0 mi Calm Calm - N/A   Mostly Cloudy
6:56 AM 48.0 °F 39.9 °F 74% 29.87 in 10.0 mi Calm Calm - N/A   Scattered Clouds
7:56 AM 54.0 °F 41.0 °F 62% 29.87 in 10.0 mi Calm Calm - N/A   Scattered Clouds
8:56 AM 57.0 °F 39.9 °F 53% 29.88 in 10.0 mi Variable 3.5 mph - N/A   Scattered Clouds
9:56 AM 57.9 °F 37.9 °F 47% 29.87 in 10.0 mi Variable 3.5 mph - N/A   Scattered Clouds
10:56 AM 61.0 °F 37.0 °F 41% 29.87 in 10.0 mi NNW 3.5 mph - N/A   Mostly Cloudy
11:56 AM 64.9 °F 34.0 °F 32% 29.86 in 10.0 mi SSW 6.9 mph - N/A   Scattered Clouds
12:56 PM 68.0 °F 30.9 °F 25% 29.84 in 10.0 mi WNW 8.1 mph - N/A   Scattered Clouds
1:56 PM 70.0 °F 30.9 °F 24% 29.83 in 10.0 mi WSW 9.2 mph 17.3 mph N/A   Scattered Clouds
2:56 PM 70.0 °F 28.9 °F 22% 29.82 in 10.0 mi Calm Calm - N/A   Scattered Clouds
3:56 PM 72.0 °F 26.1 °F 18% 29.81 in 10.0 mi Variable 4.6 mph - N/A   Scattered Clouds
4:56 PM 73.0 °F 24.1 °F 16% 29.81 in 10.0 mi West 15.0 mph 19.6 mph N/A   Scattered Clouds
5:56 PM 73.0 °F 21.9 °F 15% 29.81 in 10.0 mi West 16.1 mph - N/A   Scattered Clouds
6:56 PM 69.1 °F 24.1 °F 18% 29.83 in 10.0 mi West 21.9 mph 29.9 mph N/A   Scattered Clouds
7:56 PM 64.9 °F 25.0 °F 22% 29.86 in 10.0 mi WNW 17.3 mph - N/A   Scattered Clouds
8:56 PM 62.1 °F 25.0 °F 24% 29.88 in 10.0 mi WNW 12.7 mph - N/A   Partly Cloudy
9:56 PM 59.0 °F 27.0 °F 29% 29.92 in 10.0 mi WNW 12.7 mph - N/A   Scattered Clouds
10:56 PM 57.0 °F 30.0 °F 36% 29.94 in 10.0 mi West 15.0 mph 21.9 mph N/A   Clear
11:56 PM 55.0 °F 30.9 °F 40% 29.95 in 10.0 mi West 11.5 mph - N/A   Clear